Location: Santa Giusta
(39.8800°N, 8.6069°E)
Time: 18:14:16
(UTC+00:00)

Lacrosse 5 - Pass Details

Date: 02 February 2023
Orbit: 714 x 724 km, 57.0° (Epoch: 09 March)

Event Time Altitude Azimuth Distance (km) Brightness Sun altitude
Rises 17:35:03 0° 224° (SW) 3,120 6.2 -9.9°
Reaches altitude 10° 17:37:25 10° 225° (SW) 2,204 5.4 -10.3°
Maximum altitude 17:42:30 83° 314° (NW) 734 1.9 -11.2°
Enters shadow 17:47:30 11° 42° (NE) 2,170 3.9 -12.2°
